Location: *
(47.7167°N, 1.7333°W)
Time: 02:15:13
(UTC+00:00)

SJ-6B - Pass Details

Date: 09 April 2020
Orbit: 509 x 582 km, 97.6° (Epoch: 03 June)

Event Time Altitude Azimuth Distance (km) Brightness Sun altitude
Exits shadow 20:15:42 - 183° (S) 2,662 6.0 -14.4°
Reaches altitude 10° 20:17:37 10° 189° (S) 1,893 5.3 -14.7°
Maximum altitude 20:21:33 43° 261° (W) 824 4.1 -15.3°
Drops below altitude 10° 20:25:31 10° 334° (NNW) 1,909 6.4 -15.8°
Sets 20:27:46 0° 342° (NNW) 2,810 7.3 -16.1°
